Year,Month,Day,Hour,Minute,Value (Times are PST for temperature in C)
2015,06,14,00,00,17.20
2015,06,14,00,01,17.20
2015,06,14,00,02,17.20
2015,06,14,00,03,17.20
2015,06,14,00,04,17.20
2015,06,14,00,05,17.20
2015,06,14,00,06,17.30
2015,06,14,00,07,17.30
2015,06,14,00,08,17.30
2015,06,14,00,09,17.30
2015,06,14,00,10,17.30
2015,06,14,00,11,17.30
2015,06,14,00,12,17.30
2015,06,14,00,13,17.30
2015,06,14,00,14,17.30
2015,06,14,00,15,17.30
2015,06,14,00,16,17.30
2015,06,14,00,17,17.30
2015,06,14,00,18,17.30
2015,06,14,00,19,17.30
2015,06,14,00,20,17.30
2015,06,14,00,21,17.30
2015,06,14,00,22,17.20
2015,06,14,00,23,17.30
2015,06,14,00,24,17.30
2015,06,14,00,25,17.20
2015,06,14,00,26,17.20
2015,06,14,00,27,17.20
2015,06,14,00,28,17.20
2015,06,14,00,29,17.20
2015,06,14,00,30,17.20
2015,06,14,00,31,17.20
2015,06,14,00,32,17.20
2015,06,14,00,33,17.20
2015,06,14,00,34,17.20
2015,06,14,00,35,17.20
2015,06,14,00,36,17.20
2015,06,14,00,37,17.10
2015,06,14,00,38,17.10
2015,06,14,00,39,17.10
2015,06,14,00,40,17.10
2015,06,14,00,41,17.00
2015,06,14,00,42,17.00
2015,06,14,00,43,17.00
2015,06,14,00,44,16.90
2015,06,14,00,45,16.90
2015,06,14,00,46,16.90
2015,06,14,00,47,16.90
2015,06,14,00,48,16.90
2015,06,14,00,49,16.90
2015,06,14,00,50,16.90
2015,06,14,00,51,16.90
2015,06,14,00,52,16.80
2015,06,14,00,53,16.80
2015,06,14,00,54,16.80
2015,06,14,00,55,16.80
2015,06,14,00,56,16.80
2015,06,14,00,57,16.80
2015,06,14,00,58,16.70
2015,06,14,00,59,16.70
2015,06,14,01,00,16.70
2015,06,14,01,01,16.70
2015,06,14,01,02,16.70
2015,06,14,01,03,16.70
2015,06,14,01,04,16.70
2015,06,14,01,05,16.70
2015,06,14,01,06,16.60
2015,06,14,01,07,16.60
2015,06,14,01,08,16.60
2015,06,14,01,09,16.60
2015,06,14,01,10,16.60
2015,06,14,01,11,16.60
2015,06,14,01,12,16.60
2015,06,14,01,13,16.50
2015,06,14,01,14,16.50
2015,06,14,01,15,16.50
2015,06,14,01,16,16.50
2015,06,14,01,17,16.50
2015,06,14,01,18,16.40
2015,06,14,01,19,16.40
2015,06,14,01,20,16.40
2015,06,14,01,21,16.40
2015,06,14,01,22,16.40
2015,06,14,01,23,16.40
2015,06,14,01,24,16.30
2015,06,14,01,25,16.30
2015,06,14,01,26,16.30
2015,06,14,01,27,16.30
2015,06,14,01,28,16.20
2015,06,14,01,29,16.20
2015,06,14,01,30,16.20
2015,06,14,01,31,16.20
2015,06,14,01,32,16.20
2015,06,14,01,33,16.20
2015,06,14,01,34,16.20
2015,06,14,01,35,16.10
2015,06,14,01,36,16.10
2015,06,14,01,37,16.10
2015,06,14,01,38,16.10
2015,06,14,01,39,16.10
2015,06,14,01,40,16.10
2015,06,14,01,41,16.10
2015,06,14,01,42,16.00
2015,06,14,01,43,16.00
2015,06,14,01,44,15.90
2015,06,14,01,45,15.90
2015,06,14,01,46,15.90
2015,06,14,01,47,15.80
2015,06,14,01,48,15.80
2015,06,14,01,49,15.80
2015,06,14,01,50,15.70
2015,06,14,01,51,15.70
2015,06,14,01,52,15.70
2015,06,14,01,53,15.60
2015,06,14,01,54,15.60
2015,06,14,01,55,15.50
2015,06,14,01,56,15.50
2015,06,14,01,57,15.40
2015,06,14,01,58,15.40
2015,06,14,01,59,15.30
2015,06,14,02,00,15.30
2015,06,14,02,01,15.30
2015,06,14,02,02,15.20
2015,06,14,02,03,15.10
2015,06,14,02,04,15.10
2015,06,14,02,05,15.00
2015,06,14,02,06,15.00
2015,06,14,02,07,15.00
2015,06,14,02,08,15.00
2015,06,14,02,09,15.00
2015,06,14,02,10,15.00
2015,06,14,02,11,15.00
2015,06,14,02,12,14.90
2015,06,14,02,13,14.90
2015,06,14,02,14,14.90
2015,06,14,02,15,14.90
2015,06,14,02,16,14.90
2015,06,14,02,17,14.80
2015,06,14,02,18,14.80
2015,06,14,02,19,14.80
2015,06,14,02,20,14.80
2015,06,14,02,21,14.80
2015,06,14,02,22,14.70
2015,06,14,02,23,14.70
2015,06,14,02,24,14.70
2015,06,14,02,25,14.60
2015,06,14,02,26,14.60
2015,06,14,02,27,14.60
2015,06,14,02,28,14.60
2015,06,14,02,29,14.60
2015,06,14,02,30,14.50
2015,06,14,02,31,14.50
2015,06,14,02,32,14.50
2015,06,14,02,33,14.50
2015,06,14,02,34,14.40
2015,06,14,02,35,14.40
2015,06,14,02,36,14.50
2015,06,14,02,37,14.50
2015,06,14,02,38,14.50
2015,06,14,02,39,14.50
2015,06,14,02,40,14.50
2015,06,14,02,41,14.60
2015,06,14,02,42,14.60
2015,06,14,02,43,14.60
2015,06,14,02,44,14.60
2015,06,14,02,45,14.60
2015,06,14,02,46,14.60
2015,06,14,02,47,14.60
2015,06,14,02,48,14.60
2015,06,14,02,49,14.60
2015,06,14,02,50,14.60
2015,06,14,02,51,14.60
2015,06,14,02,52,14.60
2015,06,14,02,53,14.50
2015,06,14,02,54,14.50
2015,06,14,02,55,14.40
2015,06,14,02,56,14.40
2015,06,14,02,57,14.30
2015,06,14,02,58,14.30
2015,06,14,02,59,14.20
2015,06,14,03,00,14.20
2015,06,14,03,01,14.20
2015,06,14,03,02,14.10
2015,06,14,03,03,14.10
2015,06,14,03,04,14.10
2015,06,14,03,05,14.00
2015,06,14,03,06,14.00
2015,06,14,03,07,14.00
2015,06,14,03,08,13.90
2015,06,14,03,09,13.90
2015,06,14,03,10,13.90
2015,06,14,03,11,13.90
2015,06,14,03,12,13.90
2015,06,14,03,13,13.80
2015,06,14,03,14,13.80
2015,06,14,03,15,13.80
2015,06,14,03,16,13.70
2015,06,14,03,17,13.70
2015,06,14,03,18,13.70
2015,06,14,03,19,13.70
2015,06,14,03,20,13.60
2015,06,14,03,21,13.60
2015,06,14,03,22,13.60
2015,06,14,03,23,13.60
2015,06,14,03,24,13.50
2015,06,14,03,25,13.50
2015,06,14,03,26,13.50
2015,06,14,03,27,13.50
2015,06,14,03,28,13.50
2015,06,14,03,29,13.60
2015,06,14,03,30,13.60
2015,06,14,03,31,13.60
2015,06,14,03,32,13.70
2015,06,14,03,33,13.70
2015,06,14,03,34,13.70
2015,06,14,03,35,13.70
2015,06,14,03,36,13.70
2015,06,14,03,37,13.70
2015,06,14,03,38,13.60
2015,06,14,03,39,13.60
2015,06,14,03,40,13.60
2015,06,14,03,41,13.60
2015,06,14,03,42,13.60
2015,06,14,03,43,13.60
2015,06,14,03,44,13.60
2015,06,14,03,45,13.70
2015,06,14,03,46,13.70
2015,06,14,03,47,13.70
2015,06,14,03,48,13.70
2015,06,14,03,49,13.70
2015,06,14,03,50,13.60
2015,06,14,03,51,13.60
2015,06,14,03,52,13.60
2015,06,14,03,53,13.60
2015,06,14,03,54,13.60
2015,06,14,03,55,13.60
2015,06,14,03,56,13.60
2015,06,14,03,57,13.60
2015,06,14,03,58,13.60
2015,06,14,03,59,13.60
2015,06,14,04,00,13.60
2015,06,14,04,01,13.60
2015,06,14,04,02,13.60
2015,06,14,04,03,13.60
2015,06,14,04,04,13.60
2015,06,14,04,05,13.60
2015,06,14,04,06,13.60
2015,06,14,04,07,13.60
2015,06,14,04,08,13.50
2015,06,14,04,09,13.50
2015,06,14,04,10,13.50
2015,06,14,04,11,13.50
2015,06,14,04,12,13.50
2015,06,14,04,13,13.50
2015,06,14,04,14,13.40
2015,06,14,04,15,13.40
2015,06,14,04,16,13.40
2015,06,14,04,17,13.40
2015,06,14,04,18,13.40
2015,06,14,04,19,13.40
2015,06,14,04,20,13.40
2015,06,14,04,21,13.40
2015,06,14,04,22,13.40
2015,06,14,04,23,13.30
2015,06,14,04,24,13.30
2015,06,14,04,25,13.30
2015,06,14,04,26,13.30
2015,06,14,04,27,13.30
2015,06,14,04,28,13.30
2015,06,14,04,29,13.30
2015,06,14,04,30,13.30
2015,06,14,04,31,13.30
2015,06,14,04,32,13.30
2015,06,14,04,33,13.30
2015,06,14,04,34,13.30
2015,06,14,04,35,13.30
2015,06,14,04,36,13.30
2015,06,14,04,37,13.30
2015,06,14,04,38,13.40
2015,06,14,04,39,13.40
2015,06,14,04,40,13.40
2015,06,14,04,41,13.40
2015,06,14,04,42,13.40
2015,06,14,04,43,13.50
2015,06,14,04,44,13.50
2015,06,14,04,45,13.50
2015,06,14,04,46,13.50
2015,06,14,04,47,13.50
2015,06,14,04,48,13.50
2015,06,14,04,49,13.40
2015,06,14,04,50,13.40
2015,06,14,04,51,13.40
2015,06,14,04,52,13.40
2015,06,14,04,53,13.40
2015,06,14,04,54,13.40
2015,06,14,04,55,13.40
2015,06,14,04,56,13.40
2015,06,14,04,57,13.40
2015,06,14,04,58,13.40
2015,06,14,04,59,13.40
2015,06,14,05,00,13.40
2015,06,14,05,01,13.40
2015,06,14,05,02,13.40
2015,06,14,05,03,13.40
2015,06,14,05,04,13.40
2015,06,14,05,05,13.40
2015,06,14,05,06,13.40
2015,06,14,05,07,13.40
2015,06,14,05,08,13.40
2015,06,14,05,09,13.30
2015,06,14,05,10,13.30
2015,06,14,05,11,13.30
2015,06,14,05,12,13.30
2015,06,14,05,13,13.30
2015,06,14,05,14,13.30
2015,06,14,05,15,13.30
2015,06,14,05,16,13.30
2015,06,14,05,17,13.20
2015,06,14,05,18,13.20
2015,06,14,05,19,13.20
2015,06,14,05,20,13.10
2015,06,14,05,21,13.10
2015,06,14,05,22,13.10
2015,06,14,05,23,13.10
2015,06,14,05,24,13.00
2015,06,14,05,25,13.00
2015,06,14,05,26,13.00
2015,06,14,05,27,12.90
2015,06,14,05,28,12.90
2015,06,14,05,29,12.90
2015,06,14,05,30,12.90
2015,06,14,05,31,12.90
2015,06,14,05,32,12.90
2015,06,14,05,33,13.00
2015,06,14,05,34,13.00
2015,06,14,05,35,13.00
2015,06,14,05,36,13.00
2015,06,14,05,37,13.00
2015,06,14,05,38,13.00
2015,06,14,05,39,13.00
2015,06,14,05,40,13.00
2015,06,14,05,41,13.00
2015,06,14,05,42,13.00
2015,06,14,05,43,13.10
2015,06,14,05,44,13.10
2015,06,14,05,45,13.10
2015,06,14,05,46,13.10
2015,06,14,05,47,13.10
2015,06,14,05,48,13.10
2015,06,14,05,49,13.20
2015,06,14,05,50,13.20
2015,06,14,05,51,13.20
2015,06,14,05,52,13.30
2015,06,14,05,53,13.30
2015,06,14,05,54,13.30
2015,06,14,05,55,13.30
2015,06,14,05,56,13.30
2015,06,14,05,57,13.40
2015,06,14,05,58,13.40
2015,06,14,05,59,13.40
2015,06,14,06,00,13.40
2015,06,14,06,01,13.50
2015,06,14,06,02,13.50
2015,06,14,06,03,13.60
2015,06,14,06,04,13.60
2015,06,14,06,05,13.60
2015,06,14,06,06,13.60
2015,06,14,06,07,13.70
2015,06,14,06,08,13.70
2015,06,14,06,09,13.70
2015,06,14,06,10,13.70
2015,06,14,06,11,13.70
2015,06,14,06,12,13.80
2015,06,14,06,13,13.80
2015,06,14,06,14,13.80
2015,06,14,06,15,13.80
2015,06,14,06,16,13.90
2015,06,14,06,17,13.90
2015,06,14,06,18,14.00
2015,06,14,06,19,14.10
2015,06,14,06,20,14.10
2015,06,14,06,21,14.20
2015,06,14,06,22,14.20
2015,06,14,06,23,14.30
2015,06,14,06,24,14.30
2015,06,14,06,25,14.30
2015,06,14,06,26,14.30
2015,06,14,06,27,14.30
2015,06,14,06,28,14.40
2015,06,14,06,29,14.40
2015,06,14,06,30,14.50
2015,06,14,06,31,14.50
2015,06,14,06,32,14.60
2015,06,14,06,33,14.70
2015,06,14,06,34,14.80
2015,06,14,06,35,14.90
2015,06,14,06,36,15.00
2015,06,14,06,37,15.00
2015,06,14,06,38,15.00
2015,06,14,06,39,15.00
2015,06,14,06,40,15.00
2015,06,14,06,41,15.00
2015,06,14,06,42,15.00
2015,06,14,06,43,15.00
2015,06,14,06,44,15.00
2015,06,14,06,45,15.00
2015,06,14,06,46,15.10
2015,06,14,06,47,15.10
2015,06,14,06,48,15.20
2015,06,14,06,49,15.20
2015,06,14,06,50,15.20
2015,06,14,06,51,15.20
2015,06,14,06,52,15.30
2015,06,14,06,53,15.30
2015,06,14,06,54,15.30
2015,06,14,06,55,15.40
2015,06,14,06,56,15.40
2015,06,14,06,57,15.40
2015,06,14,06,58,15.40
2015,06,14,06,59,15.40
2015,06,14,07,00,15.40
2015,06,14,07,01,15.40
2015,06,14,07,02,15.40
2015,06,14,07,03,15.50
2015,06,14,07,04,15.50
2015,06,14,07,05,15.60
2015,06,14,07,06,15.60
2015,06,14,07,07,15.60
2015,06,14,07,08,15.60
2015,06,14,07,09,15.70
2015,06,14,07,10,15.70
2015,06,14,07,11,15.70
2015,06,14,07,12,15.70
2015,06,14,07,13,15.80
2015,06,14,07,14,15.80
2015,06,14,07,15,15.80
2015,06,14,07,16,15.90
2015,06,14,07,17,15.90
2015,06,14,07,18,16.00
2015,06,14,07,19,16.00
2015,06,14,07,20,16.00
2015,06,14,07,21,16.10
2015,06,14,07,22,16.10
2015,06,14,07,23,16.10
2015,06,14,07,24,16.10
2015,06,14,07,25,16.10
2015,06,14,07,26,16.20
2015,06,14,07,27,16.20
2015,06,14,07,28,16.20
2015,06,14,07,29,16.20
2015,06,14,07,30,16.30
2015,06,14,07,31,16.30
2015,06,14,07,32,16.20
2015,06,14,07,33,16.20
2015,06,14,07,34,16.20
2015,06,14,07,35,16.20
2015,06,14,07,36,16.20
2015,06,14,07,37,16.30
2015,06,14,07,38,16.30
2015,06,14,07,39,16.30
2015,06,14,07,40,16.30
2015,06,14,07,41,16.30
2015,06,14,07,42,16.40
2015,06,14,07,43,16.50
2015,06,14,07,44,16.60
2015,06,14,07,45,16.70
2015,06,14,07,46,16.80
2015,06,14,07,47,16.80
2015,06,14,07,48,16.90
2015,06,14,07,49,17.00
2015,06,14,07,50,17.00
2015,06,14,07,51,17.00
2015,06,14,07,52,17.10
2015,06,14,07,53,17.10
2015,06,14,07,54,17.10
2015,06,14,07,55,17.10
2015,06,14,07,56,17.10
2015,06,14,07,57,17.10
2015,06,14,07,58,17.20
2015,06,14,07,59,17.30
2015,06,14,08,00,17.40
2015,06,14,08,01,17.40
2015,06,14,08,02,17.50
2015,06,14,08,03,17.60
2015,06,14,08,04,17.60
2015,06,14,08,05,17.70
2015,06,14,08,06,17.70
2015,06,14,08,07,17.70
2015,06,14,08,08,17.70
2015,06,14,08,09,17.70
2015,06,14,08,10,17.70
2015,06,14,08,11,17.80
2015,06,14,08,12,17.80
2015,06,14,08,13,17.80
2015,06,14,08,14,17.80
2015,06,14,08,15,17.80
2015,06,14,08,16,17.80
2015,06,14,08,17,17.80
2015,06,14,08,18,17.80
2015,06,14,08,19,17.90
2015,06,14,08,20,18.00
2015,06,14,08,21,18.00
2015,06,14,08,22,18.10
2015,06,14,08,23,18.20
2015,06,14,08,24,18.20
2015,06,14,08,25,18.20
2015,06,14,08,26,18.20
2015,06,14,08,27,18.30
2015,06,14,08,28,18.30
2015,06,14,08,29,18.30
2015,06,14,08,30,18.30
2015,06,14,08,31,18.30
2015,06,14,08,32,18.40
2015,06,14,08,33,18.40
2015,06,14,08,34,18.50
2015,06,14,08,35,18.60
2015,06,14,08,36,18.70
2015,06,14,08,37,18.80
2015,06,14,08,38,18.90
2015,06,14,08,39,18.90
2015,06,14,08,40,19.00
2015,06,14,08,41,19.10
2015,06,14,08,42,19.10
2015,06,14,08,43,19.20
2015,06,14,08,44,19.20
2015,06,14,08,45,19.30
2015,06,14,08,46,19.30
2015,06,14,08,47,19.20
2015,06,14,08,48,19.10
2015,06,14,08,49,19.10
2015,06,14,08,50,19.10
2015,06,14,08,51,19.10
2015,06,14,08,52,19.10
2015,06,14,08,53,19.20
2015,06,14,08,54,19.20
2015,06,14,08,55,19.20
2015,06,14,08,56,19.20
2015,06,14,08,57,19.20
2015,06,14,08,58,19.20
2015,06,14,08,59,19.10
2015,06,14,09,00,19.10
2015,06,14,09,01,19.20
2015,06,14,09,02,19.20
2015,06,14,09,03,19.20
2015,06,14,09,04,19.30
2015,06,14,09,05,19.40
2015,06,14,09,06,19.40
2015,06,14,09,07,19.50
2015,06,14,09,08,19.50
2015,06,14,09,09,19.40
2015,06,14,09,10,19.20
2015,06,14,09,11,19.20
2015,06,14,09,12,19.20
2015,06,14,09,13,19.20
2015,06,14,09,14,19.20
2015,06,14,09,15,19.20
2015,06,14,09,16,19.30
2015,06,14,09,17,19.30
2015,06,14,09,18,19.30
2015,06,14,09,19,19.40
2015,06,14,09,20,19.50
2015,06,14,09,21,19.60
2015,06,14,09,22,19.60
2015,06,14,09,23,19.60
2015,06,14,09,24,19.60
2015,06,14,09,25,19.70
2015,06,14,09,26,19.80
2015,06,14,09,27,19.80
2015,06,14,09,28,19.90
2015,06,14,09,29,19.90
2015,06,14,09,30,19.90
2015,06,14,09,31,19.80
2015,06,14,09,32,19.80
2015,06,14,09,33,19.80
2015,06,14,09,34,19.80
2015,06,14,09,35,19.80
2015,06,14,09,36,19.80
2015,06,14,09,37,19.80
2015,06,14,09,38,19.80
2015,06,14,09,39,19.80
2015,06,14,09,40,19.80
2015,06,14,09,41,19.70
2015,06,14,09,42,19.70
2015,06,14,09,43,19.70
2015,06,14,09,44,19.70
2015,06,14,09,45,19.70
2015,06,14,09,46,19.60
2015,06,14,09,47,19.50
2015,06,14,09,48,19.60
2015,06,14,09,49,19.60
2015,06,14,09,50,19.60
2015,06,14,09,51,19.60
2015,06,14,09,52,19.60
2015,06,14,09,53,19.60
2015,06,14,09,54,19.60
2015,06,14,09,55,19.60
2015,06,14,09,56,19.60
2015,06,14,09,57,19.60
2015,06,14,09,58,19.50
2015,06,14,09,59,19.50
2015,06,14,10,00,19.40
2015,06,14,10,01,19.30
2015,06,14,10,02,19.30
2015,06,14,10,03,19.30
2015,06,14,10,04,19.40
2015,06,14,10,05,19.40
2015,06,14,10,06,19.50
2015,06,14,10,07,19.60
2015,06,14,10,08,19.70
2015,06,14,10,09,19.80
2015,06,14,10,10,19.90
2015,06,14,10,11,20.00
2015,06,14,10,12,20.00
2015,06,14,10,13,20.10
2015,06,14,10,14,20.20
2015,06,14,10,15,20.20
2015,06,14,10,16,20.20
2015,06,14,10,17,20.20
2015,06,14,10,18,20.20
2015,06,14,10,19,20.20
2015,06,14,10,20,20.30
2015,06,14,10,21,20.30
2015,06,14,10,22,20.40
2015,06,14,10,23,20.40
2015,06,14,10,24,20.40
2015,06,14,10,25,20.40
2015,06,14,10,26,20.30
2015,06,14,10,27,20.30
2015,06,14,10,28,20.20
2015,06,14,10,29,20.20
2015,06,14,10,30,20.20
2015,06,14,10,31,20.20
2015,06,14,10,32,20.20
2015,06,14,10,33,20.20
2015,06,14,10,34,20.20
2015,06,14,10,35,20.20
2015,06,14,10,36,20.20
2015,06,14,10,37,20.30
2015,06,14,10,38,20.30
2015,06,14,10,39,20.40
2015,06,14,10,40,20.40
2015,06,14,10,41,20.50
2015,06,14,10,42,20.50
2015,06,14,10,43,20.70
2015,06,14,10,44,20.80
2015,06,14,10,45,20.90
2015,06,14,10,46,21.00
2015,06,14,10,47,21.10
2015,06,14,10,48,21.00
2015,06,14,10,49,21.00
2015,06,14,10,50,21.00
2015,06,14,10,51,20.90
2015,06,14,10,52,20.80
2015,06,14,10,53,20.70
2015,06,14,10,54,20.70
2015,06,14,10,55,20.70
2015,06,14,10,56,20.70
2015,06,14,10,57,20.70
2015,06,14,10,58,20.70
2015,06,14,10,59,20.70
2015,06,14,11,00,20.70
2015,06,14,11,01,20.60
2015,06,14,11,02,20.60
2015,06,14,11,03,20.70
2015,06,14,11,04,20.70
2015,06,14,11,05,20.70
2015,06,14,11,06,20.80
2015,06,14,11,07,20.80
2015,06,14,11,08,20.80
2015,06,14,11,09,20.80
2015,06,14,11,10,20.80
2015,06,14,11,11,20.80
2015,06,14,11,12,20.80
2015,06,14,11,13,20.80
2015,06,14,11,14,20.80
2015,06,14,11,15,20.90
2015,06,14,11,16,20.90
2015,06,14,11,17,20.90
2015,06,14,11,18,20.90
2015,06,14,11,19,20.90
2015,06,14,11,20,20.90
2015,06,14,11,21,20.90
2015,06,14,11,22,20.90
2015,06,14,11,23,20.90
2015,06,14,11,24,20.90
2015,06,14,11,25,21.00
2015,06,14,11,26,21.10
2015,06,14,11,27,21.10
2015,06,14,11,28,21.20
2015,06,14,11,29,21.20
2015,06,14,11,30,21.20
2015,06,14,11,31,21.20
2015,06,14,11,32,21.20
2015,06,14,11,33,21.20
2015,06,14,11,34,21.10
2015,06,14,11,35,21.10
2015,06,14,11,36,21.10
2015,06,14,11,37,21.20
2015,06,14,11,38,21.30
2015,06,14,11,39,21.30
2015,06,14,11,40,21.40
2015,06,14,11,41,21.40
2015,06,14,11,42,21.50
2015,06,14,11,43,21.60
2015,06,14,11,44,21.70
2015,06,14,11,45,21.70
2015,06,14,11,46,21.70
2015,06,14,11,47,21.70
2015,06,14,11,48,21.70
2015,06,14,11,49,21.70
2015,06,14,11,50,21.70
2015,06,14,11,51,21.60
2015,06,14,11,52,21.50
2015,06,14,11,53,21.40
2015,06,14,11,54,21.30
2015,06,14,11,55,21.40
2015,06,14,11,56,21.50
2015,06,14,11,57,21.60
2015,06,14,11,58,21.70
2015,06,14,11,59,21.70
2015,06,14,12,00,21.70
2015,06,14,12,01,21.70
2015,06,14,12,02,21.50
2015,06,14,12,03,21.50
2015,06,14,12,04,21.40
2015,06,14,12,05,21.40
2015,06,14,12,06,21.40
2015,06,14,12,07,21.50
2015,06,14,12,08,21.60
2015,06,14,12,09,21.60
2015,06,14,12,10,21.60
2015,06,14,12,11,21.60
2015,06,14,12,12,21.60
2015,06,14,12,13,21.70
2015,06,14,12,14,21.70
2015,06,14,12,15,21.80
2015,06,14,12,16,21.90
2015,06,14,12,17,21.90
2015,06,14,12,18,21.90
2015,06,14,12,19,22.00
2015,06,14,12,20,22.10
2015,06,14,12,21,22.20
2015,06,14,12,22,22.20
2015,06,14,12,23,22.30
2015,06,14,12,24,22.40
2015,06,14,12,25,22.50
2015,06,14,12,26,22.50
2015,06,14,12,27,22.50
2015,06,14,12,28,22.40
2015,06,14,12,29,22.30
2015,06,14,12,30,22.20
2015,06,14,12,31,22.10
2015,06,14,12,32,21.90
2015,06,14,12,33,21.80
2015,06,14,12,34,21.80
2015,06,14,12,35,21.70
2015,06,14,12,36,21.80
2015,06,14,12,37,21.90
2015,06,14,12,38,22.00
2015,06,14,12,39,22.10
2015,06,14,12,40,22.00
2015,06,14,12,41,21.90
2015,06,14,12,42,21.90
2015,06,14,12,43,21.90
2015,06,14,12,44,22.00
2015,06,14,12,45,22.10
2015,06,14,12,46,22.30
2015,06,14,12,47,22.40
2015,06,14,12,48,22.30
2015,06,14,12,49,22.20
2015,06,14,12,50,22.30
2015,06,14,12,51,22.30
2015,06,14,12,52,22.30
2015,06,14,12,53,22.30
2015,06,14,12,54,22.30
2015,06,14,12,55,22.30
2015,06,14,12,56,22.30
2015,06,14,12,57,22.40
2015,06,14,12,58,22.50
2015,06,14,12,59,22.50
2015,06,14,13,00,22.50
2015,06,14,13,01,22.40
2015,06,14,13,02,22.30
2015,06,14,13,03,22.30
2015,06,14,13,04,22.30
2015,06,14,13,05,22.30
2015,06,14,13,06,22.20
2015,06,14,13,07,22.20
2015,06,14,13,08,22.20
2015,06,14,13,09,22.30
2015,06,14,13,10,22.40
2015,06,14,13,11,22.60
2015,06,14,13,12,22.70
2015,06,14,13,13,22.80
2015,06,14,13,14,22.90
2015,06,14,13,15,23.00
2015,06,14,13,16,22.90
2015,06,14,13,17,23.00
2015,06,14,13,18,22.90
2015,06,14,13,19,22.90
2015,06,14,13,20,22.80
2015,06,14,13,21,22.70
2015,06,14,13,22,22.60
2015,06,14,13,23,22.60
2015,06,14,13,24,22.50
2015,06,14,13,25,22.40
2015,06,14,13,26,22.40
2015,06,14,13,27,22.40
2015,06,14,13,28,22.50
2015,06,14,13,29,22.50
2015,06,14,13,30,22.60
2015,06,14,13,31,22.70
2015,06,14,13,32,22.80
2015,06,14,13,33,22.90
2015,06,14,13,34,23.00
2015,06,14,13,35,23.20
2015,06,14,13,36,23.20
2015,06,14,13,37,23.30
2015,06,14,13,38,23.40
2015,06,14,13,39,23.30
2015,06,14,13,40,23.30
2015,06,14,13,41,23.30
2015,06,14,13,42,23.30
2015,06,14,13,43,23.40
2015,06,14,13,44,23.40
2015,06,14,13,45,23.50
2015,06,14,13,46,23.60
2015,06,14,13,47,23.70
2015,06,14,13,48,23.80
2015,06,14,13,49,23.80
2015,06,14,13,50,23.70
2015,06,14,13,51,23.50
2015,06,14,13,52,23.40
2015,06,14,13,53,23.30
2015,06,14,13,54,23.20
2015,06,14,13,55,23.10
2015,06,14,13,56,23.00
2015,06,14,13,57,23.00
2015,06,14,13,58,23.10
2015,06,14,13,59,23.20
2015,06,14,14,00,23.30
2015,06,14,14,01,23.50
2015,06,14,14,02,23.60
2015,06,14,14,03,23.80
2015,06,14,14,04,23.90
2015,06,14,14,05,24.10
2015,06,14,14,06,24.10
2015,06,14,14,07,24.00
2015,06,14,14,08,23.90
2015,06,14,14,09,23.80
2015,06,14,14,10,23.80
2015,06,14,14,11,23.80
2015,06,14,14,12,23.80
2015,06,14,14,13,23.90
2015,06,14,14,14,23.90
2015,06,14,14,15,23.90
2015,06,14,14,16,24.00
2015,06,14,14,17,24.00
2015,06,14,14,18,24.00
2015,06,14,14,19,24.00
2015,06,14,14,20,23.90
2015,06,14,14,21,23.90
2015,06,14,14,22,23.90
2015,06,14,14,23,23.90
2015,06,14,14,24,23.80
2015,06,14,14,25,23.80
2015,06,14,14,26,23.80
2015,06,14,14,27,23.80
2015,06,14,14,28,23.80
2015,06,14,14,29,23.80
2015,06,14,14,30,23.90
2015,06,14,14,31,24.00
2015,06,14,14,32,24.00
2015,06,14,14,33,23.90
2015,06,14,14,34,23.90
2015,06,14,14,35,23.80
2015,06,14,14,36,23.80
2015,06,14,14,37,23.70
2015,06,14,14,38,23.70
2015,06,14,14,39,23.70
2015,06,14,14,40,23.70
2015,06,14,14,41,23.80
2015,06,14,14,42,23.80
2015,06,14,14,43,23.80
2015,06,14,14,44,23.70
2015,06,14,14,45,23.80
2015,06,14,14,46,23.80
2015,06,14,14,47,23.80
2015,06,14,14,48,23.80
2015,06,14,14,49,23.90
2015,06,14,14,50,23.90
2015,06,14,14,51,23.80
2015,06,14,14,52,23.80
2015,06,14,14,53,23.80
2015,06,14,14,54,23.80
2015,06,14,14,55,23.80
2015,06,14,14,56,23.60
2015,06,14,14,57,23.60
2015,06,14,14,58,23.60
2015,06,14,14,59,23.60
2015,06,14,15,00,23.60
2015,06,14,15,01,23.60
2015,06,14,15,02,23.60
2015,06,14,15,03,23.60
2015,06,14,15,04,23.60
2015,06,14,15,05,23.60
2015,06,14,15,06,23.70
2015,06,14,15,07,23.80
2015,06,14,15,08,24.00
2015,06,14,15,09,24.00
2015,06,14,15,10,23.90
2015,06,14,15,11,23.80
2015,06,14,15,12,23.70
2015,06,14,15,13,23.70
2015,06,14,15,14,23.70
2015,06,14,15,15,23.70
2015,06,14,15,16,23.70
2015,06,14,15,17,23.70
2015,06,14,15,18,23.70
2015,06,14,15,19,23.80
2015,06,14,15,20,23.70
2015,06,14,15,21,23.60
2015,06,14,15,22,23.50
2015,06,14,15,23,23.50
2015,06,14,15,24,23.60
2015,06,14,15,25,23.70
2015,06,14,15,26,23.80
2015,06,14,15,27,23.90
2015,06,14,15,28,23.90
2015,06,14,15,29,23.80
2015,06,14,15,30,23.70
2015,06,14,15,31,23.70
2015,06,14,15,32,23.70
2015,06,14,15,33,23.80
2015,06,14,15,34,23.80
2015,06,14,15,35,23.90
2015,06,14,15,36,24.00
2015,06,14,15,37,24.10
2015,06,14,15,38,24.10
2015,06,14,15,39,24.30
2015,06,14,15,40,24.50
2015,06,14,15,41,24.60
2015,06,14,15,42,24.60
2015,06,14,15,43,24.70
2015,06,14,15,44,24.60
2015,06,14,15,45,24.60
2015,06,14,15,46,24.50
2015,06,14,15,47,24.50
2015,06,14,15,48,24.50
2015,06,14,15,49,24.60
2015,06,14,15,50,24.50
2015,06,14,15,51,24.60
2015,06,14,15,52,24.60
2015,06,14,15,53,24.50
2015,06,14,15,54,24.40
2015,06,14,15,55,24.40
2015,06,14,15,56,24.40
2015,06,14,15,57,24.40
2015,06,14,15,58,24.50
2015,06,14,15,59,24.50
2015,06,14,16,00,24.50
2015,06,14,16,01,24.40
2015,06,14,16,02,24.30
2015,06,14,16,03,24.30
2015,06,14,16,04,24.30
2015,06,14,16,05,24.40
2015,06,14,16,06,24.40
2015,06,14,16,07,24.20
2015,06,14,16,08,24.20
2015,06,14,16,09,24.20
2015,06,14,16,10,24.20
2015,06,14,16,11,24.20
2015,06,14,16,12,24.20
2015,06,14,16,13,24.20
2015,06,14,16,14,24.20
2015,06,14,16,15,24.20
2015,06,14,16,16,24.20
2015,06,14,16,17,24.20
2015,06,14,16,18,24.20
2015,06,14,16,19,24.10
2015,06,14,16,20,24.00
2015,06,14,16,21,23.90
2015,06,14,16,22,23.90
2015,06,14,16,23,23.90
2015,06,14,16,24,23.90
2015,06,14,16,25,24.00
2015,06,14,16,26,24.10
2015,06,14,16,27,24.20
2015,06,14,16,28,24.30
2015,06,14,16,29,24.30
2015,06,14,16,30,24.30
2015,06,14,16,31,24.40
2015,06,14,16,32,24.50
2015,06,14,16,33,24.50
2015,06,14,16,34,24.60
2015,06,14,16,35,24.60
2015,06,14,16,36,24.70
2015,06,14,16,37,24.80
2015,06,14,16,38,24.90
2015,06,14,16,39,25.00
2015,06,14,16,40,25.10
2015,06,14,16,41,25.10
2015,06,14,16,42,25.20
2015,06,14,16,43,25.30
2015,06,14,16,44,25.30
2015,06,14,16,45,25.30
2015,06,14,16,46,25.20
2015,06,14,16,47,25.20
2015,06,14,16,48,25.10
2015,06,14,16,49,25.00
2015,06,14,16,50,24.90
2015,06,14,16,51,24.80
2015,06,14,16,52,24.80
2015,06,14,16,53,24.80
2015,06,14,16,54,24.80
2015,06,14,16,55,24.90
2015,06,14,16,56,24.90
2015,06,14,16,57,24.90
2015,06,14,16,58,24.90
2015,06,14,16,59,24.80
2015,06,14,17,00,24.80
2015,06,14,17,01,24.80
2015,06,14,17,02,24.80
2015,06,14,17,03,24.90
2015,06,14,17,04,24.80
2015,06,14,17,05,24.70
2015,06,14,17,06,24.60
2015,06,14,17,07,24.60
2015,06,14,17,08,24.60
2015,06,14,17,09,24.70
2015,06,14,17,10,24.80
2015,06,14,17,11,24.90
2015,06,14,17,12,25.00
2015,06,14,17,13,25.00
2015,06,14,17,14,25.10
2015,06,14,17,15,25.00
2015,06,14,17,16,25.00
2015,06,14,17,17,24.90
2015,06,14,17,18,24.90
2015,06,14,17,19,24.90